User: anonymous   Login
Location: *
(46.1006°N, 1.8394°E)
Time: 21:00:15
(UTC+00:00)
Language:

CZ-2C R/B - Orbit

View from above orbital plane
View from above orbital plane
View from above satellite
View from above satellite

Ground track
Ground track

The orbit data is extracted from the following two-line orbital elements,

1 28480U 04046B   19324.52009076 -.00000013 +00000-0 +96309-5 0  9991
2 28480 098.1101 010.4041 0142983 126.2113 008.7248 14.25710643780509
Epoch (UTC): 20 November 2019 12:28:55
Eccentricity: 0.0142983
inclination: 98.1101°
perigee height: 703 km
apogee height: 909 km
right ascension of ascending node: 10.4041°
argument of perigee: 126.2113°
revolutions per day: 14.25710643
mean anomaly at epoch: 8.7248°
orbit number at epoch: 78050

The dashed part of the orbit path shows where the satellite is in the earth's shadow,  

DLR